Welcome to the New NWS' Forecast!
Most changes are behind the scenes, but click here for differences you might notice.
Latest weather observations around

Fairfield / Travis Air Force Base (KSUU)

Using English Units (Switch to International System of Units)
Date/ Time (PST) Wind (mph) Vis. (mi) Weather Sky Cond. Temp (°F) Rel. Humidity Wind Chill (°F) Heat Index (°F) Pressure Precip. (in)
Air Dwpt 6 hour Altimeter (inHg) Sea level (inHg) 1 hr 3 hr 6 hr
Max Min
Nov 21 09:56 NE 13 9 Clear CLR 59 51     76%     30.2 30.22      
Nov 21 08:56 NE 9 8 Clear CLR 56 51     81%     30.19 30.21      
Nov 21 07:56 NE 7 9 Clear CLR 53 51     91%     30.19 30.21      
Nov 21 06:58 ENE 7 10 Partly Cloudy SCT120 52 50     91%     30.18 30.2      
Nov 21 05:58 NE 13 8 Mostly Clear FEW130 53 49     87%     30.17 30.19      
Nov 21 04:58 NE 8 8 Cloudy OVC130 53 50     90%     30.16 30.18      
Nov 21 03:58 ENE 8 10 Cloudy OVC120 52 51     96%     30.16 30.18      
Nov 21 02:58 NE 6 5 Fog/Mist BKN190 52 50     94%     30.16 30.18      
Nov 21 01:58 NNE 11 5 Fog/Mist SCT180 51 50     96%     30.14 30.16      
Nov 21 00:58 NNE 9 4 Fog/Mist FEW150 52 51     96%     30.17 30.19      
Nov 20 23:58 NE 14 5 Fog/Mist FEW130 OVC180 53 52     96%     30.15 30.17      
Nov 20 22:58 NNE 13 4 Fog/Mist BKN130 53 52     96%     30.15 30.17      
Nov 20 21:58 N 14 5 Fog/Mist FEW190 54 53     96%     30.15 30.17      
Nov 20 20:58 NE 5 5 Fog/Mist OVC190 54 52     95%     30.13 30.15      
Nov 20 19:58 NNE 6 5 Fog/Mist SCT036 BKN160 54 53     94%     30.12 30.14      
Nov 20 18:58 N 8 5 Fog/Mist BKN033 55 53     93%     30.11 30.13      
Nov 20 17:58 N 8 5 Fog/Mist OVC032 55 54     95%     30.12 30.14      
Nov 20 16:58 NNE 9 4 Fog/Mist OVC035 55 54     94%     30.1 30.12      
Nov 20 15:58 NNE 9 4 Fog/Mist OVC036 56 53     92%     30.11 30.13     0
Nov 20 14:58 NNE 8 5 Fog/Mist OVC037 56 52     88%     30.09 30.11      
Nov 20 13:58 NNE 10 5 Haze OVC043 59 51     75%     30.09 30.11 0    
Nov 20 12:59 N 5 10 Cloudy OVC047 59 52     77%     30.1 30.12      
Nov 20 12:58 N 5 10 Light Rain OVC047 59 51     76%     30.09 30.11 0 0  
Nov 20 12:40 N 6 10 Light Rain OVC045 59 50     72%     30.09 30.11      
Nov 20 11:58 Calm 10 Cloudy OVC050 58 49     72%     30.1 30.12      
Nov 20 10:58 Calm 10 Cloudy BKN055 OVC070 58 49     72%     30.1 30.12      
Nov 20 09:58 Calm 10 Cloudy FEW040 OVC060 57 49     75%     30.09 30.11      
Nov 20 08:58 Calm 10 Cloudy OVC060 56 49     79%     30.08 30.1      
Nov 20 08:13 Calm 1.37 Haze BKN039 OVC060 55 50     82%     30.08 30.1      
Nov 20 07:58 Calm 10 Cloudy BKN039 OVC060 54 49     84%     30.08 30.1      
Nov 20 06:58 Calm 10 Cloudy BKN047 OVC055 54 49     83%     30.06 30.08      
Nov 20 05:58 Calm 10 Cloudy OVC043 54 48     79%     30.05 30.07      
Nov 20 04:58 Calm 10 Cloudy OVC040 54 47     79%     30.04 30.06      
Nov 20 03:58 Calm 10 Cloudy OVC055 53 47     78%     30.04 30.06      
Nov 20 03:18 Calm 1.63 Haze SCT039 BKN049 OVC060 54 48     82%     30.05 30.07      
Nov 20 02:58 Calm 10 Cloudy OVC040 54 47     78%     30.06 30.08      
Nov 20 01:58 Calm 10 Cloudy BKN049 OVC055 53 47     80%     30.06 30.08      
Nov 20 00:58 Calm 10 Cloudy SCT070 OVC085 52 48     87%     30.07 30.09      
Nov 19 23:58 Calm 10 Cloudy BKN080 OVC090 52 49     91%     30.07 30.09      
Nov 19 22:58 Calm 10 Cloudy OVC100 51 47     85%     30.07 30.09      
Nov 19 21:58 Calm 10 Mostly Clear FEW110 52 47     84%     30.08 30.1      
Nov 19 20:58 Calm 10 Partly Cloudy SCT120 SCT170 51 44     78%     30.08 30.1      
Nov 19 19:58 Calm 10 Partly Cloudy FEW170 SCT200 52 42     67%     30.08 30.1      
Nov 19 18:58 Calm 10 Mostly Clear FEW160 51 44     78%     30.07 30.09      
Nov 19 17:58 Calm 10 Partly Cloudy SCT180 52 41     68%     30.06 30.08      
Nov 19 16:58 Calm 6 Haze SCT190 BKN220 55 42     61%     30.07 30.09      
Nov 19 15:58 NNE 5 7 Clear CLR 60 39     46%     30.06 30.08      
Nov 19 14:58 Calm 10 Clear CLR 61 38     43%     30.06 30.08      
Nov 19 13:58 NNE 3 10 Mostly Clear FEW190 61 38     43%     30.08 30.1      
Nov 19 12:58 NE 8 10 Clear CLR 61 37     42%     30.08 30.1      
Nov 19 11:58 NE 9 10 Mostly Clear FEW200 59 37     43%     30.12 30.14      
Nov 19 10:58 NNE 9 10 Clear CLR 57 37     47%     30.14 30.16      
Nov 19 09:58 NE 9 10 Clear CLR 53 37     54%     30.16 30.18      
Nov 19 08:58 Calm 10 Clear CLR 49 38     65%     30.16 30.18      
Nov 19 07:58 WSW 5 10 Clear CLR 37 35     93% 33   30.17 30.19      
Nov 19 06:58 Calm 10 Clear CLR 34 32     93%     30.15 30.17      
Nov 19 05:58 Calm 10 Clear CLR 33 31     93%     30.15 30.17      
Nov 19 04:58 Calm 10 Clear CLR 33 32     95%     30.15 30.17      
Nov 19 03:58 Calm 10 Clear CLR 34 33     96%     30.16 30.18      
Nov 19 02:58 E 3 10 Clear CLR 36 35     96% 34   30.16 30.18      
Nov 19 01:58 Calm 10 Clear CLR 36 35     93%     30.16 30.18      
Nov 19 00:58 WSW 3 10 Clear CLR 40 34     79% 37   30.16 30.18      
Nov 18 23:58 WNW 5 10 Clear CLR 40 34     81% 36   30.16 30.18      
Nov 18 22:58 Calm 10 Clear CLR 40 35     83%     30.15 30.17      
Nov 18 21:58 WSW 3 10 Clear CLR 40 36     85% 38   30.16 30.18      
Nov 18 20:58 Calm 10 Clear CLR 41 38     87%     30.16 30.18      
Nov 18 19:58 NNE 3 10 Clear CLR 44 39     82% 43   30.16 30.18      
Nov 18 18:58 NE 5 10 Clear CLR 46 42     86% 44   30.15 30.17      
Nov 18 17:58 ENE 7 10 Clear CLR 49 39     69% 46   30.14 30.16      
Nov 18 16:58 E 8 10 Clear CLR 53 37     54%     30.13 30.15      
Nov 18 15:58 NE 10 10 Clear CLR 62 34     35%     30.14 30.16      
Nov 18 14:58 NE 8 10 Clear CLR 62 31     30%     30.15 30.17      
Nov 18 13:58 NNE 10 10 Clear CLR 62 32     32%     30.16 30.18      
Nov 18 12:58 NE 13 10 Clear CLR 61 30     31%     30.18 30.2      
Nov 18 11:58 NE 14 10 Clear CLR 60 33     35%     30.2 30.22      
Nov 18 10:58 NNE 9 10 Clear CLR 58 35     42%     30.23 30.25      
Jun 11 20:58 WSW 8 10 Clear   53 48     81%     29.93 29.95      
Jun 11 17:58 WNW 6 5 Rain OVC060 53 48     81%     29.95   0    
Jun 11 14:58 WSW 16 10 Clear CLR 71 41     34%   69 29.87 29.89      
Jun 10 19:58   10 Clear   63 45     52%     29.86 29.88      
Jun 10 17:58 WSW 21 8 Clear and Windy CLR 70 46     43%     29.85 29.87      
Jun 10 15:58 WSW 22 10 Clear and Windy CLR 73 45     37%   72 29.86 29.88      
Jun 10 13:32 W 16 10 Mostly Clear FEW055 73 45     36%   72 29.89 29.91      
Jun 10 12:03   10 Clear CLR 73 39     29%   72 29.91 29.93      
Jun 09 22:58 SW 11 10 Clear CLR 55 48     77%     29.92 29.94      
Notice The following observation data may not be complete
Jun 09 16:58   10 Clear CLR          %              
Jun 09 15:58 SW 16 10 Clear CLR 72 47     41%   71 29.89 29.91      
Jun 08 11:58 ESE 6 10 Cloudy BKN028 OVC033 65 52     62%     30.02 30.04 0    
Jun 08 11:17 Calm 10 Cloudy OVC028 61 52     72%     30.02 30.04      
Notice The following observation data may not be complete
Jun 08 11:06   9 Light Rain OVC028          %              
Jun 08 10:58 Calm 7 Light Drizzle OVC028 60 51     73%     30.01 30.03 0   0
Jun 07 12:58   10 Mostly Cloudy FEW080 SCT150 BKN180 BKN210 71 52     52%   70 29.84 29.86      
Notice The following observation data may not be complete
Jun 07 05:58   10 Clear CLR          %              
Jun 06 11:58 WSW 16 10 Clear CLR 75 52     44%   75 29.86 29.88      
Jun 06 10:58 SW 17 10 Clear CLR 71 52     50%   70 29.87 29.89      
Jun 06 01:58   10 Clear CLR 58 50     76%     29.82 29.84      
Jun 05 12:58 SSW 6 10 Clear CLR 84 51     32%   82 29.85 29.87